TimeAST,TemperatureF,Dew PointF,Humidity,Sea Level PressureIn,VisibilityMPH,Wind Direction,Wind SpeedMPH,Gust SpeedMPH,PrecipitationIn,Events,Conditions,WindDirDegrees,DateUTC
12:00 AM,78.8,73.4,83,29.89,6.2,East,12.7,-,N/A,,Mostly Cloudy,80,2013-08-08 04:00:00
1:00 AM,80.6,73.4,79,29.86,6.2,East,17.3,-,N/A,,Partly Cloudy,100,2013-08-08 05:00:00
2:00 AM,80.6,73.4,79,29.86,6.2,East,9.2,-,N/A,,Partly Cloudy,90,2013-08-08 06:00:00
6:00 AM,80.6,73.4,79,29.86,6.2,Calm,Calm,-,N/A,,Mostly Cloudy,0,2013-08-08 10:00:00
7:00 AM,82.4,73.4,74,29.86,6.2,East,5.8,-,N/A,,Mostly Cloudy,90,2013-08-08 11:00:00
8:00 AM,84.2,77.0,79,29.89,6.2,ESE,11.5,-,N/A,,Mostly Cloudy,110,2013-08-08 12:00:00
9:00 AM,84.2,69.8,62,29.89,6.2,East,11.5,-,N/A,,Mostly Cloudy,80,2013-08-08 13:00:00
10:00 AM,86.0,73.4,66,29.89,6.2,ESE,11.5,-,N/A,,Mostly Cloudy,120,2013-08-08 14:00:00
11:00 AM,82.4,71.6,70,29.92,6.2,ENE,5.8,-,N/A,,Mostly Cloudy,60,2013-08-08 15:00:00
12:00 PM,77.0,73.4,89,29.92,0.6,ESE,13.8,-,N/A,Rain-Thunderstorm,Thunderstorms and Rain,120,2013-08-08 16:00:00
1:00 PM,73.4,71.6,94,29.92,1.9,ESE,11.5,-,N/A,Rain-Thunderstorm,Thunderstorms and Rain,120,2013-08-08 17:00:00
2:00 PM,80.6,77.0,89,29.89,3.1,South,5.8,-,N/A,Rain,Light Rain Showers,180,2013-08-08 18:00:00
3:00 PM,78.8,73.4,83,29.86,-9999.0,NNE,5.8,-,N/A,Rain,Light Rain,30,2013-08-08 19:00:00
3:05 PM,80.6,77.0,89,29.86,5.0,NNE,5.8,-,N/A,Thunderstorm,Thunderstorm,30,2013-08-08 19:05:00
4:00 PM,80.6,73.4,79,29.83,5.0,SE,5.8,-,N/A,,Mostly Cloudy,130,2013-08-08 20:00:00
5:00 PM,80.6,73.4,79,29.83,6.2,SE,5.8,-,N/A,,Mostly Cloudy,130,2013-08-08 21:00:00
6:00 PM,78.8,73.4,83,29.83,6.2,SE,11.5,-,N/A,,Mostly Cloudy,130,2013-08-08 22:00:00
7:00 PM,77.0,71.6,83,29.83,6.2,ESE,9.2,-,N/A,,Scattered Clouds,110,2013-08-08 23:00:00
8:00 PM,77.0,71.6,83,29.86,6.2,ESE,3.5,-,N/A,,Scattered Clouds,110,2013-08-09 00:00:00
9:00 PM,77.0,71.6,83,29.86,6.2,Calm,Calm,-,N/A,,Scattered Clouds,0,2013-08-09 01:00:00
10:00 PM,75.2,69.8,83,29.89,6.2,Calm,Calm,-,N/A,,Partly Cloudy,0,2013-08-09 02:00:00
11:00 PM,75.2,69.8,83,29.89,6.2,Calm,Calm,-,N/A,,Partly Cloudy,0,2013-08-09 03:00:00